Location: Claflin County Park
(44.8478°N, 87.5507°W)
Time: 03:09:10
(UTC+00:00)

USA 234 - Pass Details

Date: 19 March 2026
Orbit: 1102 x 1106 km, 123.0° (Epoch: 4 January)

Event Time Altitude Azimuth Distance (km) Brightness Sun altitude
Exits shadow 00:47:21 - 62° (ENE) 3,583 5.5 -9.1°
Reaches altitude 10° 00:49:10 10° 55° (NE) 2,968 5.1 -9.5°
Maximum altitude 00:54:43 31° 357° (N) 1,844 4.6 -10.4°
Drops below altitude 10° 01:00:15 10° 299° (WNW) 2,969 6.8 -11.4°
Sets 01:03:02 0° 290° (WNW) 3,927 8.2 -11.9°
